When you browse on this site, cookies collect data to enhance your experience and personalize the content and advertising you see.
Visit our Privacy Policy to learn more. By continuing to use the site, you agree to this use of cookies and data.
  • în România
  • Lista ţărilor
  • Pe 7 zile
  • Temperatura apei
  • Hartă satelitară
  • Meteo pe hartă
  • Widget-uri
  • user-avatar
    Intrare

    Meteo pe oră la Juigalpa

    Astăzi, 25 Mai, Sâmbătă

    Timp Temperatura Precipitaţii Vânt Presiune Umiditate
    00:00 +26°C° 0 mm 1 m/s 750 mmHg 91%
    01:00 +26°C° 0.7 mm 1 m/s 750 mmHg 91%
    02:00 +26°C° 0.7 mm 1 m/s 750 mmHg 91%
    03:00 +26°C° 0.7 mm 1 m/s 750 mmHg 91%
    04:00 +26°C° 0.4 mm 1 m/s 750 mmHg 91%
    05:00 +26°C° 0.4 mm 1 m/s 750 mmHg 91%
    06:00 +26°C° 0.4 mm 1 m/s 750 mmHg 91%
    07:00 +27°C° 0.4 mm 2 m/s 750 mmHg 87%
    08:00 +28°C° 0.4 mm 2 m/s 751 mmHg 83%
    09:00 +29°C° 0.4 mm 2 m/s 751 mmHg 80%
    10:00 +30°C° 1.3 mm 2 m/s 751 mmHg 77%
    11:00 +30°C° 1.3 mm 3 m/s 751 mmHg 74%
    12:00 +31°C° 1.3 mm 3 m/s 750 mmHg 71%
    13:00 +30°C° 3.1 mm 3 m/s 750 mmHg 75%
    14:00 +30°C° 3.1 mm 3 m/s 750 mmHg 80%
    15:00 +29°C° 3.1 mm 3 m/s 749 mmHg 84%
    16:00 +28°C° 2.9 mm 3 m/s 749 mmHg 86%
    17:00 +28°C° 2.9 mm 4 m/s 749 mmHg 87%
    18:00 +27°C° 2.9 mm 4 m/s 750 mmHg 89%
    19:00 +27°C° 2 mm 4 m/s 750 mmHg 89%
    20:00 +27°C° 2 mm 4 m/s 751 mmHg 90%
    21:00 +26°C° 2 mm 5 m/s 751 mmHg 90%
    22:00 +26°C° 1 mm 4 m/s 751 mmHg 90%
    23:00 +26°C° 1 mm 4 m/s 751 mmHg 90%

    Mâine, 26 Mai, Duminică

    Timp Temperatura Precipitaţii Vânt Presiune Umiditate
    00:00 +26°C° 1 mm 4 m/s 751 mmHg 91%
    01:00 +26°C° 0.6 mm 3 m/s 751 mmHg 90%
    02:00 +26°C° 0.6 mm 3 m/s 750 mmHg 90%
    03:00 +26°C° 0.6 mm 3 m/s 750 mmHg 90%
    04:00 +25°C° 0.2 mm 3 m/s 750 mmHg 90%
    05:00 +25°C° 0.2 mm 3 m/s 750 mmHg 90%
    06:00 +25°C° 0.2 mm 3 m/s 750 mmHg 89%
    07:00 +26°C° 0.4 mm 3 m/s 751 mmHg 87%
    08:00 +27°C° 0.4 mm 3 m/s 751 mmHg 85%
    09:00 +27°C° 0.4 mm 4 m/s 752 mmHg 83%
    10:00 +27°C° 0.4 mm 3 m/s 752 mmHg 83%
    11:00 +28°C° 0.4 mm 3 m/s 751 mmHg 82%
    12:00 +28°C° 0.4 mm 3 m/s 751 mmHg 82%
    13:00 +28°C° 0.2 mm 3 m/s 751 mmHg 80%
    14:00 +29°C° 0.2 mm 3 m/s 750 mmHg 79%
    15:00 +29°C° 0.2 mm 3 m/s 750 mmHg 77%
    16:00 +28°C° 0.5 mm 3 m/s 750 mmHg 80%
    17:00 +28°C° 0.5 mm 3 m/s 750 mmHg 83%
    18:00 +27°C° 0.5 mm 3 m/s 750 mmHg 86%
    19:00 +27°C° 0.4 mm 3 m/s 750 mmHg 87%
    20:00 +27°C° 0.4 mm 3 m/s 751 mmHg 88%
    21:00 +26°C° 0.4 mm 4 m/s 752 mmHg 89%
    22:00 +26°C° 0.5 mm 3 m/s 751 mmHg 90%
    23:00 +26°C° 0.5 mm 3 m/s 751 mmHg 90%

    Poimâine, 27 Mai, Luni

    Timp Temperatura Precipitaţii Vânt Presiune Umiditate
    00:00 +26°C° 0.5 mm 3 m/s 751 mmHg 91%
    01:00 +26°C° 0.3 mm 2 m/s 750 mmHg 91%
    02:00 +26°C° 0.3 mm 2 m/s 750 mmHg 91%
    03:00 +26°C° 0.3 mm 2 m/s 749 mmHg 91%
    04:00 +26°C° 0 mm 2 m/s 750 mmHg 91%
    05:00 +26°C° 0 mm 2 m/s 750 mmHg 90%
    06:00 +26°C° 0 mm 2 m/s 750 mmHg 89%
    07:00 +27°C° 0 mm 2 m/s 750 mmHg 84%
    08:00 +28°C° 0 mm 2 m/s 751 mmHg 79%
    09:00 +29°C° 0 mm 2 m/s 751 mmHg 74%
    10:00 +30°C° 0 mm 2 m/s 751 mmHg 70%
    11:00 +31°C° 0 mm 2 m/s 750 mmHg 66%
    12:00 +32°C° 0 mm 2 m/s 750 mmHg 62%
    13:00 +32°C° 0 mm 2 m/s 749 mmHg 62%
    14:00 +32°C° 0 mm 1 m/s 749 mmHg 62%
    15:00 +33°C° 0 mm 1 m/s 748 mmHg 62%
    16:00 +31°C° 1.6 mm 1 m/s 748 mmHg 69%
    17:00 +30°C° 1.7 mm 1 m/s 748 mmHg 75%
    18:00 +29°C° 1.6 mm 1 m/s 748 mmHg 82%
    19:00 +29°C° 1.8 mm 1 m/s 749 mmHg 83%
    20:00 +28°C° 1.8 mm 1 m/s 750 mmHg 84%
    21:00 +28°C° 1.8 mm 1 m/s 750 mmHg 84%
    22:00 +28°C° 0.3 mm 1 m/s 750 mmHg 85%
    23:00 +28°C° 0.3 mm 1 m/s 750 mmHg 85%

    28 Mai, Marţi

    Timp Temperatura Precipitaţii Vânt Presiune Umiditate
    00:00 +27°C° 0.3 mm 1 m/s 750 mmHg 86%
    01:00 +27°C° 0.1 mm 1 m/s 749 mmHg 87%
    02:00 +27°C° 0.1 mm 1 m/s 749 mmHg 87%
    03:00 +27°C° 0.1 mm 1 m/s 748 mmHg 88%
    04:00 +27°C° 0 mm 1 m/s 748 mmHg 88%
    05:00 +27°C° 0 mm 1 m/s 748 mmHg 88%
    06:00 +27°C° 0 mm 1 m/s 748 mmHg 88%
    07:00 +28°C° 0 mm 2 m/s 749 mmHg 83%
    08:00 +29°C° 0 mm 2 m/s 749 mmHg 79%
    09:00 +30°C° 0 mm 2 m/s 749 mmHg 75%
    10:00 +30°C° 0.7 mm 2 m/s 749 mmHg 73%
    11:00 +31°C° 0.7 mm 2 m/s 749 mmHg 70%
    12:00 +32°C° 0.7 mm 2 m/s 748 mmHg 68%
    13:00 +31°C° 2.4 mm 3 m/s 748 mmHg 73%
    14:00 +30°C° 2.4 mm 3 m/s 747 mmHg 78%
    15:00 +29°C° 2.4 mm 4 m/s 747 mmHg 83%
    16:00 +29°C° 0.4 mm 3 m/s 747 mmHg 84%
    17:00 +28°C° 0.4 mm 2 m/s 748 mmHg 86%
    18:00 +28°C° 0.4 mm 2 m/s 748 mmHg 87%
    19:00 +27°C° 0.4 mm 2 m/s 749 mmHg 88%
    20:00 +27°C° 0.4 mm 1 m/s 749 mmHg 89%
    21:00 +27°C° 0.4 mm 1 m/s 750 mmHg 90%
    22:00 +27°C° 0.1 mm 1 m/s 749 mmHg 90%
    23:00 +27°C° 0.1 mm 1 m/s 749 mmHg 91%

    29 Mai, Miercuri

    Timp Temperatura Precipitaţii Vânt Presiune Umiditate
    00:00 +27°C° 0.1 mm 1 m/s 749 mmHg 91%
    01:00 +25°C° 0 mm 0 m/s 748 mmHg 92%
    02:00 +24°C° 0 mm 0 m/s 748 mmHg 92%
    03:00 +24°C° 0 mm 0 m/s 747 mmHg 93%
    04:00 +26°C° 0.1 mm 1 m/s 748 mmHg 92%
    05:00 +27°C° 0.1 mm 1 m/s 748 mmHg 92%
    06:00 +27°C° 0.1 mm 1 m/s 749 mmHg 92%
    07:00 +27°C° 0.5 mm 1 m/s 749 mmHg 88%
    08:00 +28°C° 0.5 mm 2 m/s 749 mmHg 85%
    09:00 +29°C° 0.5 mm 2 m/s 750 mmHg 82%
    10:00 +29°C° 1 mm 2 m/s 749 mmHg 81%
    11:00 +30°C° 1 mm 3 m/s 749 mmHg 79%
    12:00 +30°C° 1 mm 3 m/s 748 mmHg 78%
    13:00 +30°C° 1.5 mm 3 m/s 748 mmHg 78%
    14:00 +30°C° 1.5 mm 4 m/s 748 mmHg 78%
    15:00 +30°C° 1.5 mm 4 m/s 747 mmHg 78%
    16:00 +30°C° 1.2 mm 3 m/s 748 mmHg 81%
    17:00 +29°C° 1.2 mm 3 m/s 748 mmHg 84%
    18:00 +28°C° 1.2 mm 2 m/s 749 mmHg 87%
    19:00 +28°C° 0.5 mm 2 m/s 749 mmHg 88%
    20:00 +28°C° 0.5 mm 2 m/s 750 mmHg 89%
    21:00 +28°C° 0.5 mm 3 m/s 750 mmHg 90%
    22:00 +27°C° 1 mm 3 m/s 750 mmHg 90%
    23:00 +27°C° 1 mm 2 m/s 750 mmHg 90%

    30 Mai, Joi

    Timp Temperatura Precipitaţii Vânt Presiune Umiditate
    00:00 +27°C° 1 mm 2 m/s 750 mmHg 90%
    01:00 +27°C° 0.6 mm 2 m/s 750 mmHg 90%
    02:00 +27°C° 0.6 mm 2 m/s 749 mmHg 90%
    03:00 +27°C° 0.6 mm 2 m/s 749 mmHg 91%
    04:00 +27°C° 0.2 mm 2 m/s 749 mmHg 90%
    05:00 +27°C° 0.2 mm 2 m/s 749 mmHg 90%
    06:00 +27°C° 0.2 mm 2 m/s 750 mmHg 90%
    07:00 +28°C° 0.2 mm 3 m/s 750 mmHg 85%
    08:00 +29°C° 0.2 mm 5 m/s 750 mmHg 81%
    09:00 +30°C° 0.2 mm 6 m/s 751 mmHg 76%
    10:00 +30°C° 0.5 mm 6 m/s 751 mmHg 75%
    11:00 +30°C° 0.5 mm 6 m/s 750 mmHg 74%
    12:00 +30°C° 0.5 mm 7 m/s 750 mmHg 73%
    13:00 +29°C° 1 mm 6 m/s 750 mmHg 78%
    14:00 +28°C° 1 mm 5 m/s 749 mmHg 83%
    15:00 +27°C° 1 mm 5 m/s 749 mmHg 88%
    16:00 +27°C° 0.7 mm 4 m/s 749 mmHg 89%
    17:00 +27°C° 0.7 mm 3 m/s 749 mmHg 90%
    18:00 +27°C° 0.7 mm 3 m/s 750 mmHg 91%
    19:00 +27°C° 0.3 mm 3 m/s 750 mmHg 91%
    20:00 +27°C° 0.3 mm 2 m/s 750 mmHg 91%
    21:00 +27°C° 0.3 mm 2 m/s 751 mmHg 92%
    22:00 +26°C° 0.6 mm 2 m/s 751 mmHg 92%
    23:00 +26°C° 0.6 mm 2 m/s 750 mmHg 92%
    Arată mai mult